Location: Ergnies
(50.0854°N, 2.0375°E)
Time: 08:22:37
(UTC+00:00)

SeaSat 1 - Pass Details

Date: 14 January 2026
Orbit: 737 x 740 km, 108.0° (Epoch: 17 February)

Event Time Altitude Azimuth Distance (km) Brightness Sun altitude
Rises 06:47:52 0° 27° (NNE) 3,185 5.8 -9.0°
Reaches altitude 10° 06:50:09 10° 25° (NNE) 2,258 5.0 -8.7°
Maximum altitude 06:55:00 63° 305° (NW) 827 2.4 -8.0°
Drops below altitude 10° 06:59:49 10° 225° (SW) 2,246 4.7 -7.3°
Sets 07:02:05 0° 222° (SW) 3,165 5.5 -6.9°
